Ketchikan, AK

8:19 AM AKDT on April 30, 2017 (GMT -0800)
Ketchikan International

Weather History for PAKT - January, 2013

Change the Weather History Date:

Saturday, January 19, 2013

  Actual Average Record
Temperature  
Mean Temperature 38 °F -  
Max Temperature 41 °F 40 °F 56 °F (1981)
Min Temperature 36 °F 30 °F 0 °F (2012)
Degree Days  
Heating Degree Days 26    
Moisture  
Dew Point 37 °F    
Average Humidity 95    
Maximum Humidity 100    
Minimum Humidity 89    
Precipitation  
Precipitation 0.01 in - - ()
Sea Level Pressure  
Sea Level Pressure 30.29 in    
Wind  
Wind Speed 2 mph (SE)    
Max Wind Speed 6 mph    
Max Gust Speed -    
Visibility 9 miles    
Events      
Averages and records for this station are not official NWS values.
T = Trace of Precipitation, MM = Missing Value Source: NWS Daily Summary

Daily Weather History Graph

Daily Weather History Graph

Search for Another Location

Airport or City:

Trip Planner

Search our weather history database for the weather conditions in past years. The results will help you decide how hot, cold, wet, or windy it might be!

Date:

Astronomy

Jan. 19, 2013 Rise Set
Actual Time 7:59 AM AKST 3:56 PM AKST
Civil Twilight 7:16 AM AKST 4:39 PM AKST
Nautical Twilight 6:30 AM AKST 5:25 PM AKST
Astronomical Twilight 5:47 AM AKST 6:09 PM AKST
Moon 10:38 AM AKST (1/19) 1:25 AM AKST (1/19)
Length of Visible Light 9h 23m
Length of Day
7h 57m
First Quarter, 58% of the Moon is Illuminated
Jan 19
First Quarter
Jan 26
Full
Feb 3
Last Quarter
Feb 9
New
Feb 17
First Quarter

Hourly Weather History & Observations

Time (AKST) Temp. Windchill Dew Point Humidity Pressure Visibility Wind Dir Wind Speed Gust Speed Precip Events Conditions
12:53 AM 36.0 °F 32.1 °F 34.0 °F 93% 30.28 in 10.0 mi SE 4.6 mph - N/A   Overcast
1:53 AM 36.0 °F - 33.1 °F 89% 30.30 in 10.0 mi Calm Calm - N/A   Overcast
3:53 AM 36.0 °F - 34.0 °F 93% 30.29 in 10.0 mi Calm Calm - N/A   Overcast
4:53 AM 37.0 °F - 34.0 °F 89% 30.29 in 10.0 mi Calm Calm - N/A   Overcast
5:21 AM 37.4 °F - 35.6 °F 93% 30.28 in 10.0 mi Calm Calm - N/A   Overcast
5:53 AM 36.0 °F - 35.1 °F 97% 30.28 in 10.0 mi Calm Calm - N/A   Overcast
6:15 AM 37.4 °F 34.9 °F 35.6 °F 93% 30.28 in 8.0 mi South 3.5 mph - N/A   Overcast
6:53 AM 37.0 °F - 36.0 °F 96% 30.29 in 8.0 mi Calm Calm - N/A   Overcast
7:00 AM 37.4 °F - 35.6 °F 93% 30.27 in 6.0 mi Calm Calm - N/A   Overcast
7:53 AM 37.0 °F - 36.0 °F 96% 30.30 in 6.0 mi Calm Calm - N/A   Overcast
8:53 AM 37.0 °F 34.5 °F 37.0 °F 100% 30.30 in 6.0 mi SE 3.5 mph - N/A   Overcast
9:53 AM 37.9 °F 35.5 °F 37.0 °F 97% 30.30 in 6.0 mi ESE 3.5 mph - N/A   Overcast
10:53 AM 39.0 °F 35.7 °F 37.9 °F 96% 30.30 in 10.0 mi SE 4.6 mph - N/A   Overcast
11:53 AM 39.9 °F 35.8 °F 39.0 °F 97% 30.30 in 9.0 mi ESE 5.8 mph - N/A   Overcast
12:53 PM 41.0 °F - 39.0 °F 93% 30.32 in 10.0 mi Calm Calm - N/A   Overcast
1:53 PM 39.9 °F 36.7 °F 39.0 °F 97% 30.30 in 6.0 mi SE 4.6 mph - N/A   Overcast
2:53 PM 41.0 °F 39.0 °F 39.9 °F 96% 30.30 in 10.0 mi SE 3.5 mph - 0.01 in   Overcast
3:53 PM 41.0 °F - 39.9 °F 96% 30.30 in 10.0 mi Calm Calm - N/A   Overcast
4:53 PM 41.0 °F - 39.9 °F 96% 30.29 in 10.0 mi Calm Calm - N/A   Overcast
5:53 PM 41.0 °F - 39.0 °F 93% 30.27 in 10.0 mi Calm Calm - N/A   Mostly Cloudy
6:53 PM 39.9 °F - 39.0 °F 97% 30.28 in 10.0 mi Calm Calm - N/A   Mostly Cloudy
7:53 PM 41.0 °F - 39.0 °F 93% 30.29 in 10.0 mi Calm Calm - N/A   Mostly Cloudy
8:53 PM 39.9 °F 37.8 °F 37.9 °F 93% 30.28 in 10.0 mi SE 3.5 mph - N/A   Clear
9:53 PM 39.0 °F - 37.9 °F 96% 30.30 in 10.0 mi Calm Calm - N/A   Clear
10:53 PM 37.9 °F - 37.0 °F 97% 30.29 in 10.0 mi Calm Calm - N/A   Clear
11:53 PM 37.9 °F 35.5 °F 37.0 °F 97% 30.31 in 10.0 mi SE 3.5 mph - N/A   Partly Cloudy